Immokalee Regional Airport [I, FL

5:50 AM EDT on May 25, 2017 (GMT -0400)
Immokalee

Weather History for KIMM - August, 2014

Change the Weather History Date:

Saturday, August 30, 2014

  Actual Average (KRSW) Record (KRSW)
Temperature  
Mean Temperature 86 °F -  
Max Temperature 98 °F 90 °F 97 °F (1990)
Min Temperature 73 °F 74 °F 69 °F (1956)
Cooling Degree Days 20    
Growing Degree Days 36 (Base 50)    
Moisture  
Dew Point 79 °F    
Average Humidity 75    
Maximum Humidity 100    
Minimum Humidity 44    
Precipitation  
Precipitation 0.00 in - - ()
Sea Level Pressure  
Sea Level Pressure 30.09 in    
Wind  
Wind Speed 3 mph (East)    
Max Wind Speed 14 mph    
Max Gust Speed 18 mph    
Visibility 7 miles    
Events      
Averages and records for this station are not official NWS values.
T = Trace of Precipitation, MM = Missing Value Source: NWS Daily Summary

Daily Weather History Graph

Daily Weather History Graph

Search for Another Location

Airport or City:

Trip Planner

Search our weather history database for the weather conditions in past years. The results will help you decide how hot, cold, wet, or windy it might be!

Date:

Astronomy

Aug. 30, 2014 Rise Set
Actual Time 7:04 AM EDT 7:47 PM EDT
Civil Twilight 6:40 AM EDT 8:10 PM EDT
Nautical Twilight 6:13 AM EDT 8:38 PM EDT
Astronomical Twilight 5:45 AM EDT 9:06 PM EDT
Moon 11:20 AM EDT (8/30) 10:52 PM EDT (8/30)
Length of Visible Light 13h 29m
Length of Day
12h 42m
Waxing Crescent, 23% of the Moon is Illuminated
Aug 30
Waxing Crescent
Sep 2
First Quarter
Sep 8
Full
Sep 15
Last Quarter
Sep 24
New

Hourly Weather History & Observations

Time (EDT) Temp. Heat Index Dew Point Humidity Pressure Visibility Wind Dir Wind Speed Gust Speed Precip Events Conditions
12:55 AM 75.2 °F - - N/A% 30.12 in 10.0 mi Calm Calm - 0.00 in   Clear
1:15 AM 73.4 °F - - N/A% 30.12 in 10.0 mi Calm Calm - 0.00 in   Clear
1:35 AM 73.4 °F - - N/A% 30.12 in 10.0 mi Calm Calm - 0.00 in   Clear
1:55 AM 73.4 °F - - N/A% 30.11 in 10.0 mi Calm Calm - 0.00 in   Clear
2:15 AM 73.4 °F - - N/A% 30.11 in 9.0 mi Calm Calm - 0.00 in   Clear
2:35 AM 75.2 °F - - N/A% 30.09 in 10.0 mi Calm Calm - 0.00 in   Clear
2:55 AM 75.2 °F - - N/A% 30.08 in 10.0 mi Calm Calm - 0.00 in   Clear
3:15 AM 75.2 °F - - N/A% 30.08 in 8.0 mi East 3.5 mph - 0.00 in   Clear
3:35 AM 75.2 °F - - N/A% 30.08 in 9.0 mi East 5.8 mph - 0.00 in   Clear
3:55 AM 75.2 °F - - N/A% 30.08 in 8.0 mi ESE 4.6 mph - 0.00 in   Clear
4:15 AM 75.2 °F - - N/A% 30.07 in 7.0 mi East 4.6 mph - 0.00 in   Clear
4:35 AM 75.2 °F - - N/A% 30.07 in 8.0 mi Calm Calm - 0.00 in   Clear
4:55 AM 75.2 °F - - N/A% 30.07 in 7.0 mi Calm Calm - 0.00 in   Clear
5:15 AM 75.2 °F - - N/A% 30.07 in 7.0 mi Calm Calm - 0.00 in   Clear
5:35 AM 73.4 °F - - N/A% 30.08 in 7.0 mi Calm Calm - 0.00 in   Clear
5:55 AM 75.2 °F - - N/A% 30.09 in 7.0 mi Calm Calm - 0.00 in   Clear
6:15 AM 75.2 °F - - N/A% 30.10 in 5.0 mi Calm Calm - 0.00 in   Clear
6:35 AM 73.4 °F - - N/A% 30.10 in 5.0 mi Calm Calm - 0.00 in   Clear
6:55 AM 75.2 °F - - N/A% 30.11 in 5.0 mi Calm Calm - 0.00 in   Scattered Clouds
7:15 AM 75.2 °F - - N/A% 30.11 in 4.0 mi Calm Calm - 0.00 in   Partly Cloudy
7:55 AM 75.2 °F - - N/A% 30.12 in 3.0 mi NE 3.5 mph - 0.00 in   Clear
8:15 AM 77.0 °F - - N/A% 30.12 in 4.0 mi ENE 4.6 mph - 0.00 in   Clear
8:35 AM 77.0 °F - - N/A% 30.13 in 4.0 mi ENE 5.8 mph - 0.00 in   Clear
8:55 AM 78.8 °F - - N/A% 30.13 in 5.0 mi ENE 4.6 mph - 0.00 in   Clear
9:15 AM 80.6 °F - - N/A% 30.13 in 5.0 mi ENE 4.6 mph - 0.00 in   Clear
9:35 AM 82.4 °F 96.1 °F 82.4 °F 100% 30.13 in 5.0 mi ENE 6.9 mph - 0.00 in   Clear
9:55 AM 84.2 °F 103.5 °F 84.2 °F 100% 30.13 in 5.0 mi ENE 5.8 mph - 0.00 in   Clear
10:15 AM 89.6 °F 119.2 °F 86.0 °F 89% 30.13 in 6.0 mi East 5.8 mph - 0.00 in   Clear
10:35 AM 89.6 °F 111.1 °F 82.4 °F 79% 30.13 in 5.0 mi East 6.9 mph - 0.00 in   Clear
10:55 AM 91.4 °F 117.8 °F 84.2 °F 79% 30.13 in 6.0 mi East 9.2 mph - 0.00 in   Clear
11:15 AM 91.4 °F 114.3 °F 82.4 °F 75% 30.14 in 5.0 mi ESE 10.4 mph - 0.00 in   Partly Cloudy
11:35 AM 91.4 °F 114.3 °F 82.4 °F 75% 30.13 in 5.0 mi East 8.1 mph - 0.00 in   Scattered Clouds
11:55 AM 93.2 °F 117.1 °F 82.4 °F 71% 30.13 in 5.0 mi ESE 11.5 mph 16.1 mph 0.00 in   Partly Cloudy
12:15 PM 93.2 °F 117.1 °F 82.4 °F 71% 30.12 in 5.0 mi SE 5.8 mph - 0.00 in   Partly Cloudy
12:35 PM 95.0 °F 115.8 °F 80.6 °F 63% 30.11 in 5.0 mi ESE 10.4 mph - 0.00 in   Partly Cloudy
12:55 PM 93.2 °F 113.6 °F 80.6 °F 67% 30.11 in 5.0 mi ESE 8.1 mph - 0.00 in   Partly Cloudy
1:15 PM 95.0 °F 115.8 °F 80.6 °F 63% 30.10 in 5.0 mi ESE 8.1 mph - 0.00 in   Scattered Clouds
1:35 PM 95.0 °F 115.8 °F 80.6 °F 63% 30.09 in 7.0 mi SE 9.2 mph - 0.00 in   Partly Cloudy
1:55 PM 95.0 °F 112.2 °F 78.8 °F 59% 30.09 in 5.0 mi ESE 4.6 mph - 0.00 in   Partly Cloudy
2:15 PM 96.8 °F 114.8 °F 78.8 °F 56% 30.08 in 5.0 mi SSE 10.4 mph - 0.00 in   Partly Cloudy
3:15 PM 96.8 °F 112.2 °F 77.0 °F 53% 30.06 in 6.0 mi South 8.1 mph - 0.00 in   Clear
3:35 PM 95.0 °F 107.4 °F 75.2 °F 53% 30.05 in 7.0 mi South 5.8 mph - 0.00 in   Clear
3:55 PM 98.6 °F 111.7 °F 75.2 °F 47% 30.04 in 5.0 mi ESE 11.5 mph - 0.00 in   Partly Cloudy
4:15 PM 96.8 °F 107.3 °F 73.4 °F 47% 30.04 in 5.0 mi ESE 13.8 mph 18.4 mph 0.00 in   Partly Cloudy
4:35 PM 96.8 °F 107.3 °F 73.4 °F 47% 30.04 in 5.0 mi ESE 10.4 mph - 0.00 in   Partly Cloudy
5:15 PM 96.8 °F 105.1 °F 71.6 °F 44% 30.03 in 6.0 mi East 11.5 mph - 0.00 in   Clear
5:35 PM 93.2 °F 100.5 °F 71.6 °F 49% 30.03 in 7.0 mi East 11.5 mph 16.1 mph 0.00 in   Clear
5:55 PM 91.4 °F 98.4 °F 71.6 °F 52% 30.04 in 7.0 mi East 9.2 mph - 0.00 in   Clear
6:15 PM 89.6 °F 96.2 °F 71.6 °F 55% 30.04 in 8.0 mi East 8.1 mph - 0.00 in   Clear
6:35 PM 87.8 °F 95.6 °F 73.4 °F 62% 30.04 in 7.0 mi East 6.9 mph - 0.00 in   Clear
6:55 PM 87.8 °F 95.6 °F 73.4 °F 62% 30.05 in 5.0 mi East 6.9 mph - 0.00 in   Clear
7:35 PM 84.2 °F 96.1 °F 78.8 °F 84% 30.06 in 7.0 mi East 4.6 mph - 0.00 in   Clear
7:55 PM 82.4 °F 92.4 °F 78.8 °F 89% 30.07 in 7.0 mi East 4.6 mph - 0.00 in   Clear
8:15 PM 82.4 °F 92.4 °F 78.8 °F 89% 30.07 in 8.0 mi East 6.9 mph - 0.00 in   Clear
8:35 PM 82.4 °F 92.4 °F 78.8 °F 89% 30.07 in 8.0 mi East 6.9 mph - 0.00 in   Scattered Clouds
8:55 PM 82.4 °F 94.0 °F 80.6 °F 94% 30.08 in 7.0 mi East 6.9 mph - 0.00 in   Partly Cloudy
9:15 PM 82.4 °F 94.0 °F 80.6 °F 94% 30.09 in 7.0 mi ESE 6.9 mph - 0.00 in   Clear
9:35 PM 82.4 °F 96.1 °F 82.4 °F 100% 30.10 in 8.0 mi East 3.5 mph - 0.00 in   Clear
9:55 PM 80.6 °F 89.3 °F 80.6 °F 100% 30.10 in 7.0 mi Calm Calm - 0.00 in   Clear
10:15 PM 80.6 °F 89.3 °F 80.6 °F 100% 30.11 in 7.0 mi Calm Calm - 0.00 in   Clear
10:35 PM 78.8 °F - 78.8 °F 100% 30.11 in 7.0 mi Calm Calm - 0.00 in   Clear
11:15 PM 78.8 °F - 78.8 °F 100% 30.12 in 7.0 mi Calm Calm - 0.00 in   Clear
11:35 PM 78.8 °F - 78.8 °F 100% 30.12 in 8.0 mi Calm Calm - 0.00 in   Clear
11:55 PM 78.8 °F - 78.8 °F 100% 30.13 in 8.0 mi Calm Calm - 0.00 in   Clear